Myrtle Beach, SC

8:06 AM EST on November 22, 2017 (GMT -0500)
Myrtle Beach International

Weather History for KMYR - April, 2013

Change the Weather History Date:

Wednesday, April 3, 2013

  Actual Average Record
Temperature  
Mean Temperature 54 °F -  
Max Temperature 60 °F 67 °F 83 °F (2006)
Min Temperature 48 °F 49 °F 30 °F (1992)
Degree Days  
Heating Degree Days 11    
Growing Degree Days 4 (Base 50)    
Moisture  
Dew Point 45 °F    
Average Humidity 71    
Maximum Humidity 100    
Minimum Humidity 36    
Precipitation  
Precipitation 0.00 in - - ()
Sea Level Pressure  
Sea Level Pressure 30.16 in    
Wind  
Wind Speed 8 mph (ESE)    
Max Wind Speed 17 mph    
Max Gust Speed -    
Visibility 10 miles    
Events      
Averages and records for this station are not official NWS values.
T = Trace of Precipitation, MM = Missing Value Source: NWS Daily Summary

Daily Weather History Graph

Daily Weather History Graph

Search for Another Location

Airport or City:

Trip Planner

Search our weather history database for the weather conditions in past years. The results will help you decide how hot, cold, wet, or windy it might be!

Date:

Astronomy

Apr. 03, 2013 Rise Set
Actual Time 7:00 AM EDT 7:37 PM EDT
Civil Twilight 6:35 AM EDT 8:03 PM EDT
Nautical Twilight 6:05 AM EDT 8:32 PM EDT
Astronomical Twilight 5:35 AM EDT 9:03 PM EDT
Moon 2:21 AM EDT (4/3) 1:05 PM EDT (4/3)
Length of Visible Light 13h 28m
Length of Day
12h 37m
Last Quarter, 45% of the Moon is Illuminated
Apr 3
Last Quarter
Apr 10
New
Apr 18
First Quarter
Apr 25
Full
May 2
Last Quarter

Hourly Weather History & Observations

Time (EDT) Temp. Dew Point Humidity Pressure Visibility Wind Dir Wind Speed Gust Speed Precip Events Conditions
12:15 AM 55.4 °F 48.2 °F 77% 30.13 in 10.0 mi South 9.2 mph - N/A   Clear
12:35 AM 55.4 °F 48.2 °F 77% 30.13 in 10.0 mi South 8.1 mph - N/A   Clear
12:55 AM 55.4 °F 48.2 °F 77% 30.13 in 10.0 mi South 5.8 mph - N/A   Clear
1:15 AM 55.4 °F 48.2 °F 77% 30.13 in 10.0 mi South 6.9 mph - N/A   Partly Cloudy
1:35 AM 57.2 °F 50.0 °F 77% 30.13 in 10.0 mi South 8.1 mph - N/A   Mostly Cloudy
1:55 AM 57.2 °F 50.0 °F 77% 30.12 in 10.0 mi South 8.1 mph - N/A   Overcast
2:15 AM 57.2 °F 48.2 °F 72% 30.11 in 10.0 mi South 9.2 mph - N/A   Mostly Cloudy
2:35 AM 57.2 °F 50.0 °F 77% 30.11 in 10.0 mi South 8.1 mph - N/A   Mostly Cloudy
2:55 AM 57.2 °F 50.0 °F 77% 30.10 in 10.0 mi South 6.9 mph - N/A   Mostly Cloudy
3:15 AM 57.2 °F 50.0 °F 77% 30.09 in 10.0 mi SSE 6.9 mph - N/A   Mostly Cloudy
3:35 AM 57.2 °F 50.0 °F 77% 30.09 in 10.0 mi South 5.8 mph - N/A   Clear
3:55 AM 55.4 °F 51.8 °F 88% 30.08 in 10.0 mi SE 4.6 mph - N/A   Clear
4:15 AM 55.4 °F 50.0 °F 82% 30.09 in 10.0 mi Calm Calm - N/A   Clear
4:35 AM 51.8 °F 50.0 °F 94% 30.10 in 10.0 mi Calm Calm - N/A   Partly Cloudy
4:55 AM 51.8 °F 48.2 °F 88% 30.10 in 10.0 mi Calm Calm - N/A   Partly Cloudy
5:15 AM 51.8 °F 48.2 °F 88% 30.10 in 10.0 mi North 4.6 mph - N/A   Scattered Clouds
5:35 AM 50.0 °F 48.2 °F 94% 30.10 in 10.0 mi North 4.6 mph - N/A   Partly Cloudy
5:50 AM 48.2 °F 46.4 °F 93% - - North - - N/A   Clear
6:50 AM 50.0 °F 50.0 °F 100% 30.12 in 10.0 mi North 8.1 mph - N/A   Mostly Cloudy
7:50 AM 51.8 °F 48.2 °F 88% 30.16 in 10.0 mi North 9.2 mph - N/A   Mostly Cloudy
10:23 AM 55.4 °F 35.6 °F 47% 30.21 in 10.0 mi North 17.3 mph - N/A   Overcast
10:45 AM - - N/A% 30.21 in 10.0 mi North - - N/A   Mostly Cloudy
11:45 AM 57.2 °F 30.2 °F 36% 30.23 in 10.0 mi NE 17.3 mph - N/A   Mostly Cloudy
12:45 PM 59.0 °F 32.0 °F 36% 30.23 in 10.0 mi NNE 13.8 mph - N/A   Mostly Cloudy
1:45 PM 60.8 °F 35.6 °F 39% 30.21 in 10.0 mi NNE 11.5 mph - N/A   Scattered Clouds
2:50 PM 59.0 °F 37.4 °F 45% 30.20 in 10.0 mi ESE 15.0 mph - N/A   Clear
3:45 PM 57.2 °F 37.4 °F 48% 30.19 in 10.0 mi ESE 13.8 mph - N/A   Clear
4:45 PM 57.2 °F 41.0 °F 55% 30.20 in 10.0 mi ESE 15.0 mph - N/A   Clear
5:45 PM 55.4 °F 42.8 °F 63% 30.21 in 10.0 mi ESE 11.5 mph - N/A   Clear
6:45 PM 53.6 °F 42.8 °F 67% 30.21 in 10.0 mi East 11.5 mph - N/A   Clear
7:50 PM 53.6 °F 42.8 °F 67% 30.22 in 10.0 mi East 9.2 mph - N/A   Clear
8:50 PM 53.6 °F 41.0 °F 62% 30.24 in 10.0 mi East 11.5 mph - N/A   Clear
11:15 PM 53.6 °F 41.0 °F 62% 30.26 in 10.0 mi ENE 6.9 mph - N/A   Clear
11:35 PM 53.6 °F 41.0 °F 62% 30.27 in 10.0 mi ENE 9.2 mph - N/A   Partly Cloudy
11:55 PM 53.6 °F 42.8 °F 67% 30.27 in 10.0 mi East 9.2 mph - N/A   Scattered Clouds